Strathmore
DateTemperatureDew Point
05/07 - 12:15 PM84.3°58.6°
05/07 - 12:00 PM84.3°58.6°
05/07 - 11:45 AM83.1°58.6°
05/07 - 11:30 AM82.1°58.1°
05/07 - 11:15 AM82.5°57.7°
05/07 - 11:00 AM82.2°58.2°
05/07 - 10:45 AM81.0°57.8°
05/07 - 10:30 AM80.2°57.7°
05/07 - 10:15 AM80.1°57.6°
05/07 - 10:00 AM78.7°57.1°
05/07 - 09:45 AM77.0°56.5°
05/07 - 09:30 AM75.4°56.1°
05/07 - 09:15 AM73.6°55.9°
05/07 - 09:00 AM72.6°55.7°
05/07 - 08:45 AM71.2°55.9°
05/07 - 08:30 AM70.3°55.7°
05/07 - 08:15 AM69.1°55.3°
05/07 - 08:00 AM67.7°55.2°
05/07 - 07:45 AM66.0°55.4°
05/07 - 07:30 AM63.7°55.4°
05/07 - 07:15 AM61.6°55.6°
05/07 - 07:00 AM58.7°56.6°
05/07 - 06:45 AM55.8°55.8°
05/07 - 06:30 AM54.2°54.2°
05/07 - 06:15 AM53.1°53.0°
05/07 - 06:00 AM52.7°52.2°
05/07 - 05:45 AM52.5°51.6°
05/07 - 05:30 AM53.0°51.6°
05/07 - 05:15 AM53.7°52.1°
05/07 - 05:00 AM54.5°52.5°
05/07 - 04:45 AM54.6°53.0°
05/07 - 04:30 AM54.3°52.8°
05/07 - 04:15 AM54.8°53.0°
05/07 - 04:00 AM55.3°53.3°
05/07 - 03:45 AM55.3°53.5°
05/07 - 03:30 AM54.6°53.4°
05/07 - 03:15 AM54.6°52.9°
05/07 - 03:00 AM55.1°53.1°
05/07 - 02:45 AM55.6°53.3°
05/07 - 02:30 AM56.2°53.5°
05/07 - 02:15 AM56.8°53.1°
05/07 - 02:00 AM56.8°53.3°
05/07 - 01:45 AM56.4°53.5°
05/07 - 01:30 AM56.6°53.5°
05/07 - 01:15 AM56.5°53.7°
05/07 - 01:00 AM56.3°53.8°
05/07 - 12:45 AM56.4°53.7°
05/07 - 12:30 AM56.6°53.8°
05/07 - 12:15 AM57.0°54.0°
05/07 - 12:00 AM57.1°54.4°
05/06 - 11:45 PM56.7°54.7°
05/06 - 11:30 PM56.5°54.8°
05/06 - 11:15 PM56.8°54.7°
05/06 - 11:00 PM57.3°54.5°
05/06 - 10:45 PM57.4°55.2°
05/06 - 10:30 PM57.4°55.9°
05/06 - 10:15 PM57.4°55.8°
05/06 - 10:00 PM57.8°55.8°
05/06 - 09:45 PM58.3°55.8°
05/06 - 09:30 PM58.9°55.9°
05/06 - 09:15 PM59.6°56.5°
05/06 - 09:00 PM60.3°56.9°
05/06 - 08:45 PM61.0°57.1°
05/06 - 08:30 PM62.1°57.2°
05/06 - 08:15 PM63.4°56.8°
05/06 - 08:00 PM65.3°56.0°
05/06 - 07:45 PM67.5°55.3°
05/06 - 07:30 PM70.1°54.5°
05/06 - 07:15 PM72.1°53.7°
05/06 - 07:00 PM73.6°53.7°
05/06 - 06:45 PM74.9°53.7°
05/06 - 06:30 PM75.8°53.6°
05/06 - 06:15 PM76.6°53.5°
05/06 - 06:00 PM77.1°53.3°
05/06 - 05:45 PM77.8°53.6°
05/06 - 05:30 PM78.5°53.9°
05/06 - 05:15 PM78.6°53.8°
05/06 - 05:00 PM79.4°54.2°
05/06 - 04:45 PM79.7°54.1°
05/06 - 04:30 PM81.0°54.3°
05/06 - 04:15 PM80.5°54.0°
05/06 - 04:00 PM80.9°54.3°
05/06 - 03:45 PM80.8°54.6°
05/06 - 03:30 PM80.5°54.7°
05/06 - 03:15 PM80.5°54.8°
05/06 - 03:00 PM80.0°54.6°
05/06 - 02:45 PM80.3°54.7°
05/06 - 02:30 PM79.9°54.6°
05/06 - 02:15 PM79.4°54.7°
05/06 - 02:00 PM79.0°54.8°
05/06 - 01:45 PM78.3°54.6°
05/06 - 01:30 PM78.1°54.3°
05/06 - 01:15 PM77.2°54.2°
05/06 - 01:00 PM76.8°53.4°
05/06 - 12:45 PM75.7°53.1°
05/06 - 12:30 PM74.8°52.9°
05/06 - 12:15 PM75.6°53.3°
05/06 - 12:00 PM75.5°53.4°
05/06 - 11:45 AM75.8°53.9°
05/06 - 11:30 AM74.6°53.3°
05/06 - 11:15 AM73.9°53.4°
05/06 - 11:00 AM72.9°53.0°
05/06 - 10:45 AM71.0°52.2°
05/06 - 10:30 AM70.7°52.1°
05/06 - 10:15 AM72.0°52.8°
05/06 - 10:00 AM71.0°53.1°
05/06 - 09:45 AM69.3°52.8°
05/06 - 09:30 AM67.8°52.2°
05/06 - 09:15 AM66.8°52.3°
05/06 - 09:00 AM65.9°52.2°
05/06 - 08:45 AM65.0°52.2°
05/06 - 08:30 AM63.3°51.6°
05/06 - 08:15 AM62.1°51.0°
05/06 - 08:00 AM60.5°51.8°
05/06 - 07:45 AM58.7°52.3°
05/06 - 07:30 AM56.2°54.7°
05/06 - 07:15 AM53.7°53.6°
05/06 - 07:00 AM52.7°52.7°
05/06 - 06:45 AM51.2°51.2°
05/06 - 06:30 AM49.1°49.1°
05/06 - 06:15 AM47.8°47.7°
05/06 - 06:00 AM47.1°47.1°
05/06 - 05:45 AM47.1°47.1°
05/06 - 05:30 AM47.4°47.4°
05/06 - 05:15 AM47.8°47.8°
05/06 - 05:00 AM47.6°47.6°
05/06 - 04:45 AM47.7°47.7°
05/06 - 04:30 AM48.2°48.2°
05/06 - 04:15 AM48.6°48.6°
05/06 - 04:00 AM49.3°49.3°
05/06 - 03:45 AM49.7°49.7°
05/06 - 03:30 AM49.9°49.9°
05/06 - 03:15 AM49.3°49.3°
05/06 - 03:00 AM49.1°49.1°
05/06 - 02:45 AM49.2°49.1°
05/06 - 02:30 AM49.6°49.5°
05/06 - 02:15 AM49.7°49.6°
05/06 - 02:00 AM49.4°49.3°
05/06 - 01:45 AM49.6°49.4°
05/06 - 01:30 AM50.0°49.7°
05/06 - 01:15 AM50.1°49.7°
05/06 - 01:00 AM50.3°49.8°
05/06 - 12:45 AM50.5°50.0°
05/06 - 12:30 AM50.7°50.1°
05/06 - 12:15 AM50.8°50.1°
05/06 - 12:00 AM51.1°50.2°
05/05 - 11:45 PM51.5°50.3°
05/05 - 11:30 PM51.9°50.5°
05/05 - 11:15 PM52.4°50.8°
05/05 - 11:00 PM52.6°51.1°
05/05 - 10:45 PM53.4°52.0°
05/05 - 10:30 PM53.9°52.3°
05/05 - 10:15 PM54.4°52.2°
05/05 - 10:00 PM55.6°53.1°
05/05 - 09:45 PM56.8°53.6°
05/05 - 09:30 PM58.2°54.2°
05/05 - 09:15 PM59.4°54.0°
05/05 - 09:00 PM60.4°54.1°
05/05 - 08:45 PM61.3°54.2°
05/05 - 08:30 PM62.0°53.4°
05/05 - 08:15 PM62.8°51.8°
05/05 - 08:00 PM63.5°50.1°
05/05 - 07:45 PM64.3°48.6°
05/05 - 07:30 PM65.0°48.0°
05/05 - 07:15 PM65.4°48.1°
05/05 - 07:00 PM65.9°48.4°
05/05 - 06:45 PM66.5°48.5°
05/05 - 06:30 PM66.7°48.3°
05/05 - 06:15 PM66.9°48.5°
05/05 - 06:00 PM67.3°48.8°
05/05 - 05:45 PM68.1°49.0°
05/05 - 05:30 PM68.8°49.7°
05/05 - 05:15 PM68.9°49.4°
05/05 - 05:00 PM69.1°49.2°
05/05 - 04:45 PM68.7°48.5°
05/05 - 04:30 PM70.0°48.4°
05/05 - 04:15 PM73.4°49.1°
05/05 - 04:00 PM72.3°48.7°
05/05 - 03:45 PM70.2°48.8°
05/05 - 03:30 PM69.6°48.8°
05/05 - 03:15 PM69.7°48.8°
05/05 - 03:00 PM70.4°50.7°
05/05 - 02:45 PM69.4°50.9°
05/05 - 02:30 PM71.7°52.0°
05/05 - 02:15 PM70.7°51.8°
05/05 - 02:00 PM69.0°51.8°
05/05 - 01:45 PM68.2°51.9°
05/05 - 01:30 PM67.6°51.8°
05/05 - 01:15 PM69.2°52.7°
05/05 - 01:00 PM69.0°53.3°